This demonstration page uses our WeatherBlox Daily Observations layout. Learn more.

Left ArrowRight Arrow

44.89941, -97.11507

Hourly Observations for May 19, 2019

Temp ( °F °C ) Dew Point ( °F °C ) Humidity (%) Winds ( mph kmh ) Pressure ( in mb ) Visibility ( mi km ) Precip ( " mm )
12:53 am 00:53 Cloudy 41 5 39 3.9 93 93 NE 15 24 29.76 1008 10 16 0.00 0.00
1:53 am 01:53 Cloudy 41 5 39 3.9 93 93 NE 16 26 29.76 1008 8 13 0.00 0.00
2:53 am 02:53 Cloudy 41 5 39 3.9 93 93 NE 18 30 29.73 1007 9 14 0.00 0.00
3:53 am 03:53 Cloudy 41 5 39 3.9 93 93 NE 16 26 29.72 1006 10 16 0.00 0.00
4:53 am 04:53 Cloudy with Mist and Fog 41 5 39 3.9 93 93 NNE 16 26 29.74 1007 5 8 0.00 0.00
5:53 am 05:53 Cloudy with Mist and Fog 41 5 39 3.9 93 93 NNE 14 22 29.75 1008 4 6 0.00 0.00
6:43 am 06:43 Cloudy with Light Rain 41 5 39 3.9 93 93 NNE 12 19 29.80 1009 3 4 0.01 0.25
6:53 am 06:53 Cloudy with Light Rain 41 5 39 3.9 93 93 N 12 19 29.79 1009 3 4 0.01 0.25
7:17 am 07:17 Cloudy with Light Rain 40 4.4 39 3.9 97 97 N 13 20 29.81 1009 2 2 0.01 0.25
7:45 am 07:45 Cloudy with Mist and Fog 41 5 39 3.9 93 93 N 16 26 29.81 1010 3 4 0.01 0.25
7:53 am 07:53 Cloudy with Mist and Fog 41 5 39 3.9 93 93 NNE 16 26 29.80 1009 3 4 0.01 0.25
8:01 am 08:01 Cloudy with Mist and Fog 41 5 39 3.9 93 93 NNE 18 30 29.81 1010 4 6 0.00 0.00
8:26 am 08:26 Cloudy with Mist and Fog 41 5 40 4.4 96 96 NNE 15 24 29.81 1010 3 4 0.00 0.00
8:53 am 08:53 Cloudy with Mist and Fog 41 5 39 3.9 93 93 NNE 18 30 29.80 1009 5 8 0.00 0.00
9:51 am 09:51 Cloudy 43 6 39 4 87 87 NE 18 30 29.84 1010 10 16 0.00 0.00
9:53 am 09:53 Cloudy 42 5.6 39 3.9 89 89 NNE 18 30 29.83 1010 10 16 0.00 0.00
10:02 am 10:02 Cloudy with Light Rain 41 5 39 3.9 93 93 NNE 17 28 29.84 1011 3 4 0.00 0.03
10:16 am 10:16 Cloudy with Mist and Fog 41 5 39 3.9 93 93 NNE 17 28 29.84 1011 3 5 0.00 0.03
10:27 am 10:27 Cloudy with Mist and Fog 42 5.6 40 4.4 92 92 NNE 16 26 29.84 1010 3 4 0.00 0.03
10:36 am 10:36 Cloudy with Mist and Fog 42 5.6 39 3.9 89 89 NNE 18 30 29.84 1010 4 6 0.00 0.03
10:53 am 10:53 Cloudy with Mist and Fog 41 5 39 3.9 93 93 NNE 21 33 29.84 1011 3 4 0.00 0.03
11:49 am 11:49 Cloudy with Mist and Fog 41 5 37 3 87 87 NNE 18 30 29.87 1012 3 5 0.00 0.03
11:53 am 11:53 Cloudy with Mist and Fog 41 5 39 3.9 93 93 NNE 17 28 29.87 1011 4 6 0.00 0.03
12:30 pm 12:30 Cloudy with Mist and Fog 40 4.4 38 3.3 93 93 NNE 18 30 29.91 1013 3 4 0.00 0.00
12:53 pm 12:53 Cloudy with Mist and Fog 40 4.4 38 3.3 93 93 NNE 20 31 29.89 1012 5 8 0.00 0.00
1:03 pm 13:03 Cloudy with Mist and Fog 40 4.4 38 3.3 93 93 NNE 18 30 29.92 1013 3 4 0.00 0.00
1:13 pm 13:13 Cloudy with Mist and Fog 40 4.4 37 2.8 89 89 NE 21 33 29.92 1013 4 6 0.00 0.00
1:21 pm 13:21 Cloudy with Mist and Fog 40 4.4 37 2.8 89 89 NE 20 31 29.93 1013 5 8 0.00 0.00
1:45 pm 13:45 Cloudy with Mist and Fog 39 3.9 37 2.8 93 93 NNE 20 31 29.94 1014 3 5 0.00 0.00
1:53 pm 13:53 Cloudy with Mist and Fog 39 3.9 37 2.8 93 93 NNE 16 26 29.93 1014 3 4 0.00 0.00
2:00 pm 14:00 Cloudy with Mist and Fog 40 4.4 37 2.8 89 89 NNE 17 28 29.94 1014 4 6 0.00 0.00
2:36 pm 14:36 Cloudy 40 4.4 37 2.8 89 89 NNE 18 30 29.95 1014 10 16 0.00 0.00
2:53 pm 14:53 Cloudy 40 4.4 37 2.8 89 89 NNE 16 26 29.95 1014 10 16 0.00 0.00
3:18 pm 15:18 Cloudy with Light Rain 41 5 38 3.3 89 89 NNE 15 24 29.96 1015 5 8 0.01 0.25
3:29 pm 15:29 Cloudy with Light Rain 41 5 38 3.3 89 89 NNE 15 24 29.96 1015 6 10 0.01 0.25
3:53 pm 15:53 Cloudy with Light Rain 41 5 37 2.8 86 86 NE 20 31 29.97 1015 6 10 0.02 0.51
4:53 pm 16:53 Cloudy with Light Rain 41 5 38 3.3 89 89 NNE 20 31 29.98 1015 6 10 0.01 0.25
4:55 pm 16:55 Cloudy with Light Rain 41 5 38 3.3 89 89 NNE 15 24 29.99 1016 6 10 0.01 0.25
5:05 pm 17:05 Cloudy with Light Rain 41 5 38 3.3 89 89 NNE 16 26 29.99 1016 7 11 0.01 0.25
5:53 pm 17:53 Cloudy 43 6.1 38 3.3 82 82 NNE 14 22 29.99 1016 10 16 0.01 0.25
6:53 pm 18:53 Cloudy 42 5.6 38 3.3 85 85 NNE 16 26 30.01 1016 10 16 0.00 0.00
7:07 pm 19:07 Cloudy 42 5.6 38 3.3 85 85 NNE 16 26 30.01 1016 10 16 0.00 0.00
7:18 pm 19:18 Cloudy 41 5 37 2.8 86 86 NNE 15 24 30.02 1017 10 16 0.00 0.00
7:37 pm 19:37 Cloudy 41 5 37 2.8 86 86 NNE 16 26 30.03 1017 10 16 0.00 0.00
7:53 pm 19:53 Cloudy 41 5 37 2.8 86 86 NE 16 26 30.04 1017 10 16 0.00 0.00
8:04 pm 20:04 Cloudy 40 4.4 36 2.2 86 86 NE 15 24 30.05 1018 10 16 0.00 0.00
8:20 pm 20:20 Cloudy 40 4.4 36 2.2 86 86 ENE 12 19 30.06 1018 10 16 0.00 0.00
8:53 pm 20:53 Cloudy 40 4.4 36 2.2 86 86 ENE 7 11 30.06 1018 10 16 0.00 0.00
9:53 pm 21:53 Cloudy 40 4.4 35 1.7 83 83 ESE 5 7 30.10 1019 10 16 0.00 0.00
10:53 pm 22:53 Cloudy 40 4.4 34 1.1 79 79 ESE 5 7 30.13 1020 10 16 0.00 0.00
11:53 pm 23:53 Cloudy 39 3.9 34 1.1 82 82 SSE 3 6 30.14 1021 10 16 0.00 0.00

Powered by AerisWeather